TimeEDT,TemperatureF,Dew PointF,Humidity,Sea Level PressureIn,VisibilityMPH,Wind Direction,Wind SpeedMPH,Gust SpeedMPH,PrecipitationIn,Events,Conditions,WindDirDegrees,DateUTC
12:53 AM,44.1,42.1,93,30.15,4.0,Calm,Calm,-,N/A,,Clear,0,2012-10-08 04:53:00
1:53 AM,48.0,45.0,89,30.16,10.0,North,5.8,-,N/A,,Overcast,360,2012-10-08 05:53:00
2:53 AM,48.0,44.1,86,30.16,10.0,NNE,3.5,-,N/A,,Overcast,30,2012-10-08 06:53:00
3:53 AM,48.0,44.1,86,30.16,10.0,NE,5.8,-,N/A,,Overcast,40,2012-10-08 07:53:00
4:53 AM,48.9,44.1,83,30.17,10.0,NE,4.6,-,N/A,,Overcast,50,2012-10-08 08:53:00
5:53 AM,48.0,43.0,83,30.19,10.0,NNE,6.9,-,N/A,,Overcast,30,2012-10-08 09:53:00
6:53 AM,46.9,43.0,86,30.21,8.0,NE,5.8,-,0.02,Rain,Light Rain,50,2012-10-08 10:53:00
7:53 AM,46.9,44.1,90,30.22,8.0,ENE,8.1,-,0.04,Rain,Light Rain,60,2012-10-08 11:53:00
8:27 AM,46.4,44.6,93,30.25,10.0,ENE,8.1,-,0.02,Rain,Light Rain,60,2012-10-08 12:27:00
8:53 AM,46.9,43.0,86,30.24,10.0,ENE,8.1,-,0.02,Rain,Light Rain,70,2012-10-08 12:53:00
9:53 AM,46.0,42.1,86,30.25,10.0,NE,8.1,-,0.05,Rain,Light Rain,50,2012-10-08 13:53:00
10:29 AM,46.4,42.8,87,30.27,10.0,NE,8.1,-,0.00,Rain,Light Rain,50,2012-10-08 14:29:00
10:53 AM,46.0,43.0,89,30.26,8.0,NE,8.1,-,0.02,Rain,Light Rain,40,2012-10-08 14:53:00
11:53 AM,46.0,42.1,86,30.26,10.0,NE,8.1,-,0.02,Rain,Light Rain,40,2012-10-08 15:53:00
12:31 PM,46.4,42.8,87,30.25,10.0,ENE,12.7,-,0.00,,Overcast,60,2012-10-08 16:31:00
12:53 PM,46.0,42.1,86,30.25,10.0,NE,9.2,-,0.00,Rain,Light Rain,50,2012-10-08 16:53:00
1:44 PM,46.4,42.8,87,30.25,5.0,North,8.1,-,0.00,Rain,Light Rain,10,2012-10-08 17:44:00
1:53 PM,46.0,43.0,89,30.22,8.0,NNE,5.8,-,0.00,Rain,Light Rain,30,2012-10-08 17:53:00
2:41 PM,46.4,42.8,87,30.22,10.0,NE,6.9,-,0.01,,Overcast,40,2012-10-08 18:41:00
2:53 PM,46.9,43.0,86,30.20,5.0,NE,10.4,-,0.01,,Overcast,40,2012-10-08 18:53:00
3:11 PM,46.4,44.6,93,30.19,4.0,NNE,11.5,-,N/A,,Overcast,30,2012-10-08 19:11:00
3:21 PM,46.4,42.8,87,30.19,9.0,NNE,11.5,-,N/A,,Overcast,30,2012-10-08 19:21:00
3:53 PM,48.0,43.0,83,30.18,10.0,NNE,6.9,-,0.01,,Overcast,30,2012-10-08 19:53:00
4:53 PM,48.0,42.1,80,30.17,10.0,NNE,8.1,-,N/A,,Overcast,20,2012-10-08 20:53:00
5:53 PM,48.0,43.0,83,30.18,10.0,NNE,6.9,-,N/A,,Overcast,30,2012-10-08 21:53:00
6:53 PM,46.9,44.1,90,30.18,5.0,NE,5.8,-,N/A,,Overcast,40,2012-10-08 22:53:00
7:06 PM,46.4,42.8,87,30.20,10.0,NNE,6.9,-,N/A,,Overcast,20,2012-10-08 23:06:00
7:28 PM,48.2,42.8,82,30.18,10.0,NE,8.1,-,N/A,,Overcast,40,2012-10-08 23:28:00
7:53 PM,48.0,43.0,83,30.17,10.0,NNE,6.9,-,N/A,,Overcast,20,2012-10-08 23:53:00
8:53 PM,48.0,43.0,83,30.17,10.0,North,6.9,-,N/A,,Overcast,10,2012-10-09 00:53:00
9:35 PM,48.2,42.8,82,30.20,10.0,NNE,6.9,-,N/A,,Overcast,30,2012-10-09 01:35:00
9:53 PM,48.0,43.0,83,30.19,10.0,NNE,10.4,16.1,N/A,,Overcast,30,2012-10-09 01:53:00
10:14 PM,48.2,42.8,82,30.20,10.0,NNE,6.9,-,N/A,,Overcast,30,2012-10-09 02:14:00
10:53 PM,48.0,43.0,83,30.18,9.0,NE,10.4,-,N/A,,Overcast,40,2012-10-09 02:53:00
11:51 PM,46.4,44.6,93,30.20,2.5,NE,6.9,-,N/A,,Overcast,40,2012-10-09 03:51:00
11:52 PM,46.9,44.1,90,30.19,2.5,NE,6.9,-,N/A,,Overcast,40,2012-10-09 03:52:00